SUD029 SGAS-SBRJ

Flight info

Callsign SUD029
Flight time N/A
Altitude 35000
Route ROLOK ROLOK UM548 KOXAG UM400 ILTIT DCT ASALU
Aircraft A320/M-SDFGHILORVWY/S

Departure

Time 2026-05-08 05:59
Airport Silvio Pettirossi International Airport (SGAS)

Arrival

Time N/A
Airport Santos Dumont Airport (SBRJ)
Time Latitude Longitude Altitude Speed Heading
2026-05-08 05:53 -25.24222 -57.51628 279 ft 0 kts 92°
2026-05-08 05:54 -25.24222 -57.51627 279 ft 1 kts 89°
2026-05-08 05:54 -25.24205 -57.51624 280 ft 7 kts
2026-05-08 05:54 -25.24130 -57.51621 278 ft 11 kts 13°
2026-05-08 05:54 -25.24060 -57.51609 278 ft 10 kts 355°
2026-05-08 05:55 -25.24002 -57.51640 278 ft 10 kts 328°
2026-05-08 05:55 -25.23922 -57.51677 278 ft 15 kts
2026-05-08 05:55 -25.23802 -57.51650 278 ft 20 kts 12°
2026-05-08 05:55 -25.23649 -57.51612 278 ft 24 kts 12°
2026-05-08 05:56 -25.23482 -57.51571 278 ft 25 kts 12°
2026-05-08 05:56 -25.23307 -57.51528 280 ft 26 kts 12°
2026-05-08 05:56 -25.23128 -57.51485 277 ft 27 kts 12°
2026-05-08 05:56 -25.22956 -57.51443 277 ft 25 kts 12°
2026-05-08 05:57 -25.22787 -57.51402 277 ft 21 kts 12°
2026-05-08 05:57 -25.22681 -57.51375 277 ft 14 kts 12°
2026-05-08 05:57 -25.22622 -57.51361 277 ft 13 kts 11°
2026-05-08 05:57 -25.22553 -57.51394 276 ft 12 kts 294°
2026-05-08 05:58 -25.22530 -57.51490 271 ft 15 kts 282°
2026-05-08 05:58 -25.22593 -57.51573 268 ft 17 kts 192°
2026-05-08 05:58 -25.22623 -57.51580 268 ft 0 kts 192°
2026-05-08 05:59 -25.22749 -57.51609 271 ft 51 kts 192°
2026-05-08 05:59 -25.23325 -57.51749 273 ft 115 kts 192°
2026-05-08 05:59 -25.24277 -57.51981 315 ft 160 kts 192°
2026-05-08 05:59 -25.25348 -57.52258 915 ft 157 kts 192°
2026-05-08 06:00 -25.26400 -57.52529 1636 ft 153 kts 192°
2026-05-08 06:00 -25.27436 -57.52789 2251 ft 158 kts 190°
2026-05-08 06:00 -25.28582 -57.53060 2531 ft 180 kts 191°
2026-05-08 06:00 -25.29882 -57.53364 2863 ft 201 kts 191°
2026-05-08 06:01 -25.31331 -57.53706 3195 ft 225 kts 190°
2026-05-08 06:01 -25.32917 -57.53598 3853 ft 239 kts 159°
2026-05-08 06:01 -25.34186 -57.52345 4732 ft 258 kts 127°
2026-05-08 06:01 -25.34867 -57.50452 5523 ft 275 kts 111°
2026-05-08 06:02 -25.35265 -57.48314 5859 ft 289 kts 105°
2026-05-08 06:02 -25.35549 -57.46094 5933 ft 293 kts 103°
2026-05-08 06:02 -25.35818 -57.43886 6082 ft 296 kts 104°
2026-05-08 06:02 -25.36091 -57.41614 6832 ft 303 kts 97°
2026-05-08 06:03 -25.36042 -57.39240 7556 ft 312 kts 90°
2026-05-08 06:03 -25.35996 -57.36846 8359 ft 317 kts 89°
2026-05-08 06:03 -25.35977 -57.34379 9142 ft 321 kts 88°
2026-05-08 06:03 -25.35974 -57.31887 9917 ft 326 kts 88°
2026-05-08 06:04 -25.35976 -57.29349 10289 ft 346 kts 88°
2026-05-08 06:04 -25.35976 -57.26602 10514 ft 368 kts 88°
2026-05-08 06:04 -25.35970 -57.23726 11011 ft 379 kts 88°
2026-05-08 06:04 -25.35963 -57.20783 11661 ft 385 kts 88°
2026-05-08 06:05 -25.35957 -57.17805 12338 ft 390 kts 88°
2026-05-08 06:05 -25.35951 -57.14790 13008 ft 394 kts 88°
2026-05-08 06:05 -25.35945 -57.12237 13559 ft 398 kts 88°
2026-05-08 06:05 -25.35933 -57.09120 14164 ft 403 kts 88°
2026-05-08 06:06 -25.35921 -57.06047 14770 ft 406 kts 89°
2026-05-08 06:06 -25.35909 -57.02939 15360 ft 410 kts 89°
2026-05-08 06:06 -25.35896 -56.99775 15941 ft 413 kts 89°
2026-05-08 06:06 -25.35881 -56.96586 16521 ft 417 kts 89°
2026-05-08 06:07 -25.35861 -56.93366 17093 ft 421 kts 89°
2026-05-08 06:07 -25.35838 -56.90118 17668 ft 424 kts 89°
2026-05-08 06:07 -25.35819 -56.86846 18232 ft 428 kts 89°
2026-05-08 06:07 -25.35803 -56.83546 18693 ft 431 kts 89°
2026-05-08 06:08 -25.35787 -56.80184 19235 ft 433 kts 88°
2026-05-08 06:08 -25.35771 -56.76840 19754 ft 436 kts 88°
2026-05-08 06:08 -25.35751 -56.73481 20255 ft 440 kts 88°
2026-05-08 06:08 -25.35730 -56.70129 20717 ft 444 kts 88°
2026-05-08 06:09 -25.35706 -56.66701 21212 ft 447 kts 87°
2026-05-08 06:09 -25.35679 -56.63250 21720 ft 451 kts 87°
2026-05-08 06:09 -25.35812 -56.59776 22224 ft 456 kts 95°
2026-05-08 06:09 -25.36214 -56.56282 22702 ft 459 kts 95°
2026-05-08 06:10 -25.36622 -56.52770 23185 ft 462 kts 95°
2026-05-08 06:10 -25.37033 -56.49229 23628 ft 466 kts 95°
2026-05-08 06:10 -25.37443 -56.45675 24010 ft 469 kts 95°
2026-05-08 06:10 -25.37854 -56.42078 24379 ft 472 kts 94°
2026-05-08 06:11 -25.38262 -56.38469 24731 ft 475 kts 94°
2026-05-08 06:11 -25.38672 -56.34829 25081 ft 479 kts 94°
2026-05-08 06:11 -25.39084 -56.31163 25435 ft 482 kts 94°
2026-05-08 06:11 -25.39499 -56.27475 25758 ft 485 kts 94°
2026-05-08 06:12 -25.39910 -56.23821 26081 ft 488 kts 93°
2026-05-08 06:12 -25.40327 -56.20084 26409 ft 491 kts 93°
2026-05-08 06:12 -25.40745 -56.16325 26742 ft 494 kts 93°
2026-05-08 06:12 -25.41168 -56.12545 27061 ft 497 kts 93°
2026-05-08 06:13 -25.41595 -56.08738 27368 ft 500 kts 93°
2026-05-08 06:13 -25.42020 -56.04918 27700 ft 503 kts 93°
2026-05-08 06:13 -25.42448 -56.01062 28016 ft 506 kts 92°
2026-05-08 06:13 -25.42874 -55.97197 28362 ft 508 kts 92°
2026-05-08 06:14 -25.43304 -55.93299 28668 ft 511 kts 92°
2026-05-08 06:14 -25.43731 -55.89396 28962 ft 513 kts 92°
2026-05-08 06:14 -25.44159 -55.85466 29250 ft 516 kts 92°
2026-05-08 06:14 -25.44592 -55.81517 29524 ft 518 kts 92°
2026-05-08 06:15 -25.44751 -55.80062 29625 ft 519 kts 92°
2026-05-08 06:18 -25.44913 -55.77904 29997 ft 509 kts 86°
2026-05-08 06:18 -25.44953 -55.74068 30407 ft 508 kts 85°
2026-05-08 06:18 -25.45220 -55.70079 30513 ft 518 kts 91°
2026-05-08 06:18 -25.45747 -55.66158 30631 ft 526 kts 95°
2026-05-08 06:19 -25.46408 -55.62157 30749 ft 531 kts 96°
2026-05-08 06:19 -25.47072 -55.58127 30912 ft 533 kts 95°
2026-05-08 06:19 -25.47661 -55.54068 31100 ft 534 kts 93°
2026-05-08 06:19 -25.48154 -55.49996 31290 ft 534 kts 91°
2026-05-08 06:20 -25.48571 -55.45921 31509 ft 533 kts 90°
2026-05-08 06:20 -25.48951 -55.41835 31754 ft 532 kts 90°
2026-05-08 06:20 -25.49325 -55.37761 32024 ft 532 kts 90°
2026-05-08 06:20 -25.49716 -55.33694 32285 ft 532 kts 90°
2026-05-08 06:21 -25.50128 -55.29628 32561 ft 532 kts 90°
2026-05-08 06:21 -25.50559 -55.25560 32753 ft 533 kts 90°
2026-05-08 06:21 -25.51000 -55.21496 33071 ft 530 kts 90°
2026-05-08 06:21 -25.51441 -55.17452 33359 ft 529 kts 90°
2026-05-08 06:22 -25.51875 -55.13425 33621 ft 528 kts 90°
2026-05-08 06:22 -25.52299 -55.09394 33869 ft 527 kts 90°
2026-05-08 06:22 -25.52715 -55.05374 34091 ft 527 kts 90°
2026-05-08 06:22 -25.53130 -55.01334 34297 ft 527 kts 89°
2026-05-08 06:23 -25.53542 -54.97311 34563 ft 524 kts 90°
2026-05-08 06:23 -25.53952 -54.93312 34829 ft 522 kts 90°
2026-05-08 06:23 -25.54765 -54.85385 34923 ft 515 kts 90°
2026-05-08 06:24 -25.55573 -54.77520 34917 ft 513 kts 90°
2026-05-08 06:24 -25.56363 -54.69768 34920 ft 511 kts 91°
2026-05-08 06:25 -25.57132 -54.62124 34934 ft 511 kts 90°
2026-05-08 06:25 -25.57881 -54.54672 34920 ft 511 kts 90°
2026-05-08 06:26 -25.58348 -54.46921 34903 ft 505 kts 84°
2026-05-08 06:26 -25.58411 -54.39159 34923 ft 504 kts 84°
2026-05-08 06:27 -25.58466 -54.31421 34895 ft 503 kts 84°
2026-05-08 06:27 -25.58514 -54.23676 34872 ft 503 kts 85°
2026-05-08 06:28 -25.58554 -54.15931 34880 ft 503 kts 85°
2026-05-08 06:28 -25.58597 -54.08185 34877 ft 503 kts 85°
2026-05-08 06:29 -25.58648 -54.00447 34877 ft 503 kts 85°
2026-05-08 06:29 -25.58686 -53.92704 34861 ft 503 kts 85°
2026-05-08 06:30 -25.58708 -53.84952 34859 ft 503 kts 85°
2026-05-08 06:30 -25.58728 -53.77203 34894 ft 503 kts 85°
2026-05-08 06:31 -25.58768 -53.69453 34875 ft 503 kts 85°
2026-05-08 06:31 -25.58826 -53.61700 34871 ft 503 kts 85°
2026-05-08 06:32 -25.58879 -53.53952 34873 ft 503 kts 85°
2026-05-08 06:32 -25.58913 -53.46211 34875 ft 503 kts 85°
2026-05-08 06:33 -25.58943 -53.38466 34873 ft 503 kts 85°
2026-05-08 06:33 -25.58977 -53.30711 34880 ft 503 kts 85°
2026-05-08 06:34 -25.59013 -53.22966 34873 ft 503 kts 85°
2026-05-08 06:34 -25.59043 -53.15198 34862 ft 505 kts 85°
2026-05-08 06:35 -25.59067 -53.07466 34861 ft 506 kts 85°
2026-05-08 06:35 -25.59094 -52.99671 34850 ft 507 kts 86°
2026-05-08 06:36 -25.59104 -52.91849 34881 ft 508 kts 85°
2026-05-08 06:36 -25.59102 -52.84020 34879 ft 508 kts 85°
2026-05-08 06:37 -25.59094 -52.76194 34879 ft 508 kts 85°
2026-05-08 06:37 -25.59080 -52.68362 34872 ft 509 kts 85°
2026-05-08 06:38 -25.59079 -52.60523 34868 ft 509 kts 85°
2026-05-08 06:38 -25.59078 -52.52677 34875 ft 509 kts 85°
2026-05-08 06:39 -25.59064 -52.44820 34867 ft 511 kts 85°
2026-05-08 06:39 -25.59047 -52.36953 34868 ft 511 kts 85°
2026-05-08 06:40 -25.59024 -52.29076 34873 ft 511 kts 85°
2026-05-08 06:40 -25.59006 -52.21208 34866 ft 511 kts 86°
2026-05-08 06:41 -25.58973 -52.13339 34872 ft 511 kts 86°
2026-05-08 06:41 -25.58941 -52.05478 34877 ft 511 kts 86°
2026-05-08 06:42 -25.58898 -51.97604 34869 ft 511 kts 86°
2026-05-08 06:42 -25.58846 -51.89736 34875 ft 511 kts 86°
2026-05-08 06:43 -25.58810 -51.83192 34881 ft 511 kts 86°
2026-05-08 06:43 -25.58761 -51.73998 34881 ft 510 kts 86°
2026-05-08 06:44 -25.58719 -51.67466 34898 ft 510 kts 86°
2026-05-08 06:44 -25.58659 -51.59617 34901 ft 509 kts 86°
2026-05-08 06:45 -25.58593 -51.51787 34901 ft 508 kts 86°
2026-05-08 06:45 -25.58523 -51.43986 34910 ft 506 kts 86°
2026-05-08 06:46 -25.58457 -51.36193 34913 ft 505 kts 86°
2026-05-08 06:46 -25.58380 -51.28424 34902 ft 504 kts 86°
2026-05-08 06:47 -25.58298 -51.20665 34892 ft 503 kts 86°
2026-05-08 06:47 -25.58222 -51.12921 34887 ft 503 kts 86°
2026-05-08 06:48 -25.58138 -51.05172 34884 ft 503 kts 86°
2026-05-08 06:48 -25.58051 -50.97421 34882 ft 503 kts 86°
2026-05-08 06:49 -25.57952 -50.89682 34885 ft 503 kts 86°
2026-05-08 06:49 -25.57848 -50.81936 34881 ft 502 kts 86°
2026-05-08 06:50 -25.57744 -50.74204 34889 ft 502 kts 86°
2026-05-08 06:50 -25.57638 -50.66477 34890 ft 502 kts 86°
2026-05-08 06:51 -25.57524 -50.58756 34887 ft 501 kts 86°
2026-05-08 06:51 -25.57409 -50.51036 34913 ft 501 kts 86°
2026-05-08 06:52 -25.57286 -50.43310 34879 ft 503 kts 86°
2026-05-08 06:52 -25.57161 -50.35563 34873 ft 503 kts 86°
2026-05-08 06:53 -25.57028 -50.27819 34880 ft 504 kts 86°
2026-05-08 06:53 -25.56893 -50.20049 34893 ft 504 kts 86°
2026-05-08 06:54 -25.56754 -50.12294 34901 ft 503 kts 86°
2026-05-08 06:54 -25.56611 -50.04540 34908 ft 503 kts 86°
2026-05-08 06:55 -25.56344 -49.96817 34896 ft 502 kts 84°
2026-05-08 06:55 -25.55966 -49.89095 34897 ft 502 kts 84°
2026-05-08 06:56 -25.55603 -49.81367 34903 ft 502 kts 84°
2026-05-08 06:56 -25.55285 -49.73651 34900 ft 502 kts 85°
2026-05-08 06:57 -25.54970 -49.65924 34895 ft 502 kts 85°
2026-05-08 06:57 -25.54631 -49.58192 34898 ft 503 kts 85°
2026-05-08 06:58 -25.54276 -49.50458 34892 ft 503 kts 85°
2026-05-08 06:58 -25.53923 -49.42713 34895 ft 504 kts 85°
2026-05-08 06:59 -25.53629 -49.34966 34969 ft 504 kts 86°
2026-05-08 06:59 -25.53452 -49.27194 34985 ft 505 kts 86°
2026-05-08 07:00 -25.53287 -49.19410 34985 ft 506 kts 86°
2026-05-08 07:00 -25.52379 -49.11796 34989 ft 502 kts 76°
2026-05-08 07:01 -25.51067 -49.04197 34973 ft 503 kts 76°
2026-05-08 07:01 -25.49762 -48.96592 34949 ft 503 kts 76°
2026-05-08 07:02 -25.48462 -48.88985 34910 ft 503 kts 76°
2026-05-08 07:02 -25.47157 -48.81380 34871 ft 503 kts 76°
2026-05-08 07:03 -25.45845 -48.73778 34871 ft 503 kts 76°
2026-05-08 07:03 -25.44530 -48.66245 34867 ft 503 kts 76°
2026-05-08 07:04 -25.43205 -48.58653 34848 ft 503 kts 76°
2026-05-08 07:04 -25.41884 -48.51054 34844 ft 503 kts 76°
2026-05-08 07:05 -25.40569 -48.43463 34828 ft 503 kts 76°
2026-05-08 07:05 -25.39247 -48.35919 34829 ft 502 kts 76°
2026-05-08 07:06 -25.37899 -48.28369 34803 ft 490 kts 76°
2026-05-08 07:06 -25.36672 -48.21685 29 ft 0 kts 76°
2026-05-08 07:07 -25.36672 -48.21684 17 ft 3 kts 86°
2026-05-08 07:07 -25.24234 -57.51546 280 ft 1 kts 102°
2026-05-08 07:12 -25.24234 -57.51549 278 ft 2 kts 102°
2026-05-08 07:12 -25.24228 -57.51577 285 ft 4 kts 102°
2026-05-08 07:12 -25.24222 -57.51606 280 ft 4 kts 102°
2026-05-08 07:13 -25.24216 -57.51635 286 ft 4 kts 102°
2026-05-08 07:13 -25.24214 -57.51643 285 ft 0 kts 102°
2026-05-08 07:15 -25.24234 -57.51546 285 ft 1 kts 102°
2026-05-08 07:24 -25.24229 -57.51567 285 ft 4 kts 103°
2026-05-08 07:24 -25.24224 -57.51597 282 ft 4 kts 97°
2026-05-08 07:25 -25.24222 -57.51625 278 ft 2 kts 92°
2026-05-08 07:25 -25.24222 -57.51627 278 ft 2 kts 92°
2026-05-08 07:26 -25.24222 -57.51628 278 ft 0 kts 92°
2026-05-08 07:27 -25.24220 -57.51626 278 ft 1 kts 71°
2026-05-08 07:27 -25.24213 -57.51627 284 ft 4 kts 358°
2026-05-08 07:27 -25.24131 -57.51621 278 ft 16 kts 12°
2026-05-08 07:28 -25.24027 -57.51625 280 ft 15 kts 333°
2026-05-08 07:28 -25.23918 -57.51677 278 ft 19 kts
2026-05-08 07:28 -25.23781 -57.51644 278 ft 20 kts 12°
2026-05-08 07:28 -25.23651 -57.51613 278 ft 18 kts 12°
2026-05-08 07:29 -25.23534 -57.51584 278 ft 16 kts 12°
2026-05-08 07:29 -25.23428 -57.51558 278 ft 16 kts 12°
2026-05-08 07:29 -25.23297 -57.51527 278 ft 22 kts 12°
2026-05-08 07:29 -25.23135 -57.51487 277 ft 25 kts 12°
2026-05-08 07:30 -25.22963 -57.51445 277 ft 26 kts 12°
2026-05-08 07:30 -25.22785 -57.51402 277 ft 27 kts 12°
2026-05-08 07:30 -25.22610 -57.51360 277 ft 23 kts
2026-05-08 07:30 -25.22529 -57.51494 269 ft 25 kts 279°
2026-05-08 07:31 -25.22617 -57.51575 268 ft 14 kts 202°
2026-05-08 07:31 -25.22640 -57.51584 268 ft 0 kts 195°
2026-05-08 07:31 -25.22671 -57.51592 269 ft 24 kts 192°
2026-05-08 07:32 -25.23080 -57.51690 272 ft 93 kts 192°
2026-05-08 07:32 -25.23899 -57.51890 280 ft 146 kts 192°
2026-05-08 07:32 -25.24952 -57.52146 659 ft 156 kts 192°
2026-05-08 07:32 -25.26005 -57.52417 1307 ft 155 kts 192°
2026-05-08 07:33 -25.27057 -57.52673 1957 ft 156 kts 192°
2026-05-08 07:33 -25.28172 -57.52942 2317 ft 173 kts 191°
2026-05-08 07:33 -25.29422 -57.53243 2462 ft 197 kts 191°
2026-05-08 07:33 -25.30839 -57.53584 2783 ft 220 kts 191°
2026-05-08 07:34 -25.32422 -57.53717 3227 ft 236 kts 167°
2026-05-08 07:34 -25.33832 -57.52760 3965 ft 251 kts 133°
2026-05-08 07:34 -25.34638 -57.50983 4760 ft 267 kts 114°
2026-05-08 07:34 -25.35074 -57.48982 5442 ft 278 kts 107°
2026-05-08 07:35 -25.35392 -57.46812 5840 ft 290 kts 104°
2026-05-08 07:35 -25.35686 -57.44582 6412 ft 296 kts 104°
2026-05-08 07:35 -25.36007 -57.42316 7062 ft 303 kts 102°
2026-05-08 07:35 -25.36065 -57.39950 7708 ft 312 kts 90°
2026-05-08 07:36 -25.36011 -57.37531 8376 ft 318 kts 89°
2026-05-08 07:36 -25.35986 -57.35058 9059 ft 324 kts 89°
2026-05-08 07:36 -25.35977 -57.32557 9727 ft 329 kts 88°
2026-05-08 07:36 -25.35976 -57.29989 10157 ft 343 kts 88°
2026-05-08 07:37 -25.35976 -57.27264 10315 ft 366 kts 88°
2026-05-08 07:37 -25.35973 -57.24363 10446 ft 388 kts 88°
2026-05-08 07:37 -25.35966 -57.21336 10888 ft 398 kts 88°
2026-05-08 07:37 -25.35957 -57.18281 11493 ft 402 kts 88°
2026-05-08 07:38 -25.35948 -57.15179 12118 ft 405 kts 88°
2026-05-08 07:38 -25.35939 -57.12054 12770 ft 408 kts 88°
2026-05-08 07:38 -25.35927 -57.08909 13395 ft 411 kts 88°
2026-05-08 07:38 -25.35916 -57.05735 13970 ft 414 kts 88°
2026-05-08 07:39 -25.35903 -57.02540 14494 ft 418 kts 88°
2026-05-08 07:39 -25.35885 -56.99308 14999 ft 422 kts 88°
2026-05-08 07:39 -25.35866 -56.96056 15504 ft 425 kts 88°
2026-05-08 07:39 -25.35849 -56.92766 16002 ft 429 kts 88°
2026-05-08 07:40 -25.35832 -56.89451 16500 ft 433 kts 88°
2026-05-08 07:40 -25.35815 -56.86113 16993 ft 437 kts 89°
2026-05-08 07:40 -25.35800 -56.82744 17458 ft 440 kts 89°
2026-05-08 07:40 -25.35782 -56.79344 17951 ft 444 kts 89°
2026-05-08 07:41 -25.35763 -56.75913 18409 ft 447 kts 89°
2026-05-08 07:41 -25.35742 -56.72462 18844 ft 451 kts 88°
2026-05-08 07:41 -25.35720 -56.68985 19271 ft 454 kts 88°
2026-05-08 07:41 -25.35694 -56.65482 19698 ft 458 kts 88°
2026-05-08 07:42 -25.35680 -56.61945 20131 ft 461 kts 90°
2026-05-08 07:42 -25.35970 -56.58400 20542 ft 465 kts 96°
2026-05-08 07:42 -25.36379 -56.54839 20956 ft 468 kts 96°
2026-05-08 07:42 -25.36794 -56.51265 21379 ft 471 kts 96°
2026-05-08 07:43 -25.37210 -56.47663 21774 ft 474 kts 96°
2026-05-08 07:43 -25.37625 -56.44032 22161 ft 477 kts 96°
2026-05-08 07:43 -25.38033 -56.40429 22536 ft 480 kts 96°
2026-05-08 07:43 -25.38447 -56.36754 22910 ft 483 kts 95°
2026-05-08 07:44 -25.38862 -56.33054 23285 ft 486 kts 95°
2026-05-08 07:44 -25.39278 -56.29334 23614 ft 489 kts 95°
2026-05-08 07:44 -25.39697 -56.25592 23951 ft 491 kts 95°
2026-05-08 07:44 -25.40118 -56.21837 24240 ft 493 kts 95°
2026-05-08 07:45 -25.40542 -56.18061 24524 ft 496 kts 95°
2026-05-08 07:45 -25.40969 -56.14267 24805 ft 499 kts 95°
2026-05-08 07:45 -25.41401 -56.10454 25084 ft 501 kts 95°
2026-05-08 07:45 -25.41832 -56.06619 25365 ft 504 kts 94°
2026-05-08 07:46 -25.42262 -56.02765 25636 ft 506 kts 94°
2026-05-08 07:46 -25.42547 -56.00204 25829 ft 508 kts 94°
2026-05-08 07:46 -25.43124 -55.94995 26171 ft 512 kts 94°
2026-05-08 07:46 -25.43409 -55.92403 26343 ft 513 kts 94°
2026-05-08 07:47 -25.43839 -55.88473 26603 ft 516 kts 94°
2026-05-08 07:47 -25.44267 -55.84525 26853 ft 518 kts 94°
2026-05-08 07:47 -25.44696 -55.80564 27096 ft 520 kts 93°
2026-05-08 07:47 -25.45129 -55.76581 27337 ft 522 kts 93°
2026-05-08 07:48 -25.45565 -55.72583 27580 ft 524 kts 93°
2026-05-08 07:48 -25.46004 -55.68571 27800 ft 526 kts 93°
2026-05-08 07:48 -25.46442 -55.64543 28022 ft 529 kts 93°
2026-05-08 07:48 -25.46877 -55.60495 28235 ft 531 kts 93°
2026-05-08 07:49 -25.47312 -55.56438 28438 ft 533 kts 93°
2026-05-08 07:49 -25.47749 -55.52360 28620 ft 534 kts 93°
2026-05-08 07:49 -25.48186 -55.48264 28790 ft 537 kts 92°
2026-05-08 07:49 -25.48623 -55.44152 28967 ft 539 kts 92°
2026-05-08 07:50 -25.49061 -55.40022 29169 ft 540 kts 92°
2026-05-08 07:50 -25.49500 -55.35893 29433 ft 540 kts 92°
2026-05-08 07:50 -25.49939 -55.31761 29726 ft 540 kts 92°
2026-05-08 07:50 -25.50376 -55.27639 30016 ft 539 kts 91°
2026-05-08 07:51 -25.50810 -55.23519 30237 ft 538 kts 91°
2026-05-08 07:51 -25.51241 -55.19402 30463 ft 538 kts 91°
2026-05-08 07:51 -25.51668 -55.15300 30699 ft 538 kts 91°
2026-05-08 07:51 -25.52097 -55.11191 30934 ft 537 kts 91°
2026-05-08 07:52 -25.52528 -55.07081 31168 ft 537 kts 91°
2026-05-08 07:52 -25.52960 -55.02983 31401 ft 536 kts 91°
2026-05-08 07:52 -25.53389 -54.98883 31637 ft 535 kts 91°
2026-05-08 07:52 -25.53811 -54.94808 31972 ft 531 kts 91°
2026-05-08 07:53 -25.54228 -54.90750 32256 ft 530 kts 90°
2026-05-08 07:53 -25.54642 -54.86701 32517 ft 528 kts 90°
2026-05-08 07:53 -25.55052 -54.82664 32756 ft 528 kts 90°
2026-05-08 07:53 -25.55457 -54.78685 32989 ft 527 kts 90°
2026-05-08 07:54 -25.55866 -54.74655 33186 ft 526 kts 90°
2026-05-08 07:54 -25.56276 -54.70636 33462 ft 524 kts 90°
2026-05-08 07:54 -25.56685 -54.66629 33705 ft 523 kts 90°
2026-05-08 07:54 -25.57089 -54.62628 33975 ft 522 kts 89°
2026-05-08 07:55 -25.57487 -54.58631 34146 ft 523 kts 89°
2026-05-08 07:55 -25.57885 -54.54620 34318 ft 523 kts 89°
2026-05-08 07:55 -25.58264 -54.50621 34501 ft 521 kts 85°
2026-05-08 07:55 -25.58349 -54.46638 34691 ft 514 kts 83°
2026-05-08 07:56 -25.58384 -54.42684 34855 ft 513 kts 83°
2026-05-08 07:56 -25.58449 -54.34778 34889 ft 513 kts 83°
2026-05-08 07:57 -25.58505 -54.26878 34884 ft 513 kts 83°
2026-05-08 07:57 -25.58553 -54.19007 34876 ft 508 kts 84°
2026-05-08 07:58 -25.58596 -54.11197 34869 ft 506 kts 84°
2026-05-08 07:58 -25.58625 -54.03398 34862 ft 506 kts 84°
2026-05-08 07:59 -25.58657 -53.95605 34852 ft 506 kts 85°
2026-05-08 07:59 -25.58693 -53.87818 34864 ft 505 kts 85°
2026-05-08 08:00 -25.58726 -53.80034 34900 ft 505 kts 84°
2026-05-08 08:00 -25.58760 -53.72264 34852 ft 504 kts 85°
2026-05-08 08:01 -25.58808 -53.64499 34861 ft 504 kts 85°
2026-05-08 08:01 -25.58854 -53.56747 34863 ft 503 kts 85°
2026-05-08 08:02 -25.58902 -53.48994 34854 ft 503 kts 85°
2026-05-08 08:02 -25.58948 -53.41249 34855 ft 503 kts 85°
2026-05-08 08:03 -25.58981 -53.33549 34854 ft 503 kts 85°
2026-05-08 08:03 -25.59000 -53.25801 34857 ft 503 kts 85°
2026-05-08 08:04 -25.59015 -53.18043 34827 ft 505 kts 85°
2026-05-08 08:04 -25.59037 -53.10260 34825 ft 506 kts 85°
2026-05-08 08:05 -25.59064 -53.02462 34838 ft 507 kts 85°
2026-05-08 08:05 -25.59087 -52.94646 34843 ft 508 kts 85°
2026-05-08 08:06 -25.59094 -52.86820 34849 ft 509 kts 85°
2026-05-08 08:06 -25.59102 -52.78980 34863 ft 509 kts 85°
2026-05-08 08:07 -25.59103 -52.71141 34857 ft 509 kts 85°
2026-05-08 08:07 -25.59099 -52.63285 34862 ft 510 kts 85°
2026-05-08 08:08 -25.59082 -52.55428 34873 ft 511 kts 85°
2026-05-08 08:08 -25.59069 -52.47552 34882 ft 511 kts 85°
2026-05-08 08:09 -25.59047 -52.39675 34882 ft 511 kts 85°
2026-05-08 08:09 -25.59024 -52.31801 34895 ft 511 kts 85°
2026-05-08 08:10 -25.59007 -52.23923 34888 ft 512 kts 85°
2026-05-08 08:10 -25.58982 -52.16035 34896 ft 512 kts 85°
2026-05-08 08:11 -25.58944 -52.08141 34903 ft 513 kts 85°
2026-05-08 08:11 -25.58905 -52.00293 34901 ft 513 kts 85°
2026-05-08 08:12 -25.58866 -51.92393 34910 ft 513 kts 85°
2026-05-08 08:12 -25.58820 -51.84498 34917 ft 513 kts 85°
2026-05-08 08:13 -25.58769 -51.76599 34910 ft 512 kts 85°
2026-05-08 08:13 -25.58713 -51.68721 34928 ft 511 kts 85°
2026-05-08 08:14 -25.58660 -51.60846 34934 ft 511 kts 85°
2026-05-08 08:14 -25.58602 -51.52990 34910 ft 510 kts 85°
2026-05-08 08:15 -25.58532 -51.45149 34930 ft 509 kts 85°
2026-05-08 08:15 -25.58467 -51.37310 34930 ft 508 kts 85°
2026-05-08 08:16 -25.58394 -51.29487 34927 ft 508 kts 86°
2026-05-08 08:16 -25.58318 -51.21664 34927 ft 507 kts 86°
2026-05-08 08:17 -25.58233 -51.13857 34917 ft 507 kts 85°
2026-05-08 08:17 -25.58144 -51.06052 34914 ft 507 kts 85°
2026-05-08 08:18 -25.58057 -50.98252 34910 ft 506 kts 85°
2026-05-08 08:18 -25.57960 -50.90450 34910 ft 506 kts 85°
2026-05-08 08:19 -25.57851 -50.82654 34890 ft 507 kts 85°